sat.trackr.live / text

‹ back to catalog

UNKNOWN

NORAD 81537

UNKNOWN UNKNOWN UNKNOWN

§ Identity

Operator
Country
Launch date
Launch site
Launch vehicle
Mass (kg)
RCS (m²)

External: N2YO · Heavens-Above

§ Orbital elements

Epoch: 2026-09-18T07:53:26.347488Z

Period
102.33 min
Inclination
71.0368°
Eccentricity
0.0074653
Mean motion
14.07251924 rev/d
Perigee alt
814.7 km
Apogee alt
922.9 km
Semi-major
7,246.9 km
B*
-1.1538e-5
RAAN
250.7246°
Arg perigee
90.7722°
Mean anomaly
270.1951°
Rev number
65,979

§ Raw data

UNKNOWN1 81537U          26261.32877717 -.00000066  00000+0 -11538-4 0  99982 81537  71.0368 250.7246 0074653  90.7722 270.1951 14.07251924659795

JSON: /api/v1/satellites/81537 · /tle

For live sub-satellite position, see the globe view (requires WebGL).

§ Visibility from observer

Set your observer location to see the next 7 days of passes ≥ 10°. The values pass through the URL so the page stays shareable.

No JS? Fill the form by hand. The geolocation button needs JavaScript.